Regional Weather Roundup
Issued by NWS

Home | Current Version | Previous Version | Text Only | Print | Product List | Glossary On
Versions: 1 2 3 4 5 6 7 8 9 10 11 12 13 14 15 16 17 18 19 20 21 22 23 24 25 26 27
000
ASUS42 KTBW 261217
RWRFL
FLORIDA REGIONAL WEATHER ROUNDUP
NATIONAL WEATHER SERVICE TAMPA BAY RUSKIN FL
800 AM EDT SUN MAR 26 2017

NOTE: "FAIR" INDICATES FEW OR NO CLOUDS BELOW 12,000 FEET WITH NO
SIGNIFICANT WEATHER AND/OR OBSTRUCTIONS TO VISIBILITY.

FLZ001>010-012>015-112-114-115-261300-
PANHANDLE FLORIDA

CITY           SKY/WX    TMP DP  RH WIND       PRES   REMARKS
PENSACOLA      PTCLDY    67  63  87 CALM      30.04R
PENSACOLA NAS    N/A     66  64  93 CALM      30.04R
CRESTVIEW      FOG       56  55  97 CALM      30.07R VSB 1/4
DUKE FIELD     FAIR      61  61 100 SE3       30.05R FOG
VALPARAISO     PTCLDY    64  64  99 CALM      30.05R
MARY ESTHER    CLEAR     65  65 100 CALM      30.04R
PANAMA CITY    FAIR      64  63  96 E5        30.06R
TYNDALL AFB    MOCLDY    66  64  92 SE7       30.08R
APALACHICOLA   CLOUDY    68  64  87 SE9       30.08R

STATION/POSITION SKY/WX   TEMP    WIND        PRES    WAVE   SWELL
                          AIR SEA DIR/SP/G            HT/PER HT/PER
                          (F)     (DEG/KT/KT) (MB)    (FT/S) (FT/S)
30.1N   87.6W              69 69  170/  8/ 10 1016.9R   4/ 6   3/ 6
29.2N   88.2W              72 73  160/ 12/ 16 1016.8R   4/ 7   3/ 7
28.8N   86.0W              71 71              1017.9S   3/ 6   2/ 6
PANAMA CITY BEAC           67 70  120/ 11/ 14 1018.2R
TOWER C                    68     140/ 13/ 14 1019.3R
28.5N   84.5W              70 69  130/ 12/ 14 1018.6R   2/ 6   2/ 6

$$
FLZ011-016>038-118-127-128-134-139-239-261300-
NORTH FLORIDA

CITY           SKY/WX    TMP DP  RH WIND       PRES   REMARKS
MARIANNA       PTCLDY    64  61  90 SE3       30.08R
TALLAHASSEE    MOCLDY    63  59  87 SE8       30.10R
PERRY          CLOUDY    62  58  86 SE3       30.13R
CROSS CITY     PTCLDY    57  57 100 SE3       30.13R
LAKE CITY      FAIR      55  55 100 CALM      30.15R FOG
GAINESVILLE    CLEAR     55  54  96 CALM      30.14S
WILLISTON      CLEAR     59  59 100 CALM      30.14S FOG
PALATKA        FOG       52  52 100 CALM      30.16R VSB<1/4
MAYPORT NAS    PTCLDY    63  61  93 CALM      30.15R FOG
JACKSONVILLE   PTCLDY    56  56 100 CALM      30.15R
JAX NAS        PTCLDY    62  60  93 CALM      30.16R
FERNANDINA BEA FAIR      63  61  94 CALM      30.14R
ST AUGUSTINE   PTCLDY    59  56  89 CALM      30.16R

STATION/POSITION SKY/WX   TEMP    WIND        PRES    WAVE   SWELL
                          AIR SEA DIR/SP/G            HT/PER HT/PER
                          (F)     (DEG/KT/KT) (MB)    (FT/S) (FT/S)
SHELL POINT      NOT AVBL
KEATON BEACH               60     100/  7/  9 1019.6R
CEDAR KEY                  66     110/  8/  9 1020.3R
FERNANDINA                 63 65   80/  1/  2 1021.6R
30.7N   81.3W                 64                N/A     4/ 8
MAYPORT                    64 66   CALM  /  1 1021.1R
31.4N   80.9W              64 62  140/  4/  6 1020.8R   4/ 9   3/ 9
ST AUGUSTINE               65 67   CALM  /  1 1021.8R

$$
FLZ040-043>046-052-053-057-058-063-144-261300-
INTERIOR CENTRAL FLORIDA

CITY           SKY/WX    TMP DP  RH WIND       PRES   REMARKS
OCALA          CLEAR     59  55  88 CALM      30.14R
THE VILLAGES     N/A     61  61 100 CALM      30.05R
LEESBURG       PTCLDY    61  59  93 NE3       30.15R
SANFORD        CLEAR     60  58  92 CALM      30.14R
ORLANDO EXEC   CLEAR     61  59  93 CALM      30.14R
ORLANDO INTL   PTCLDY    61  59  93 CALM      30.14R
KISSIMMEE      CLEAR     62  60  93 CALM      30.15R
WINTER HAVEN   CLEAR     61  59  93 E3        30.15R
LAKELAND       CLEAR     61  61 100 CALM      30.14R
OKEECHOBEE     CLOUDY   N/A N/A N/A CALM      30.13R

$$
FLZ041-047-054-059-064-141-147-261300-
EAST CENTRAL FLORIDA

CITY           SKY/WX    TMP DP  RH WIND       PRES   REMARKS
ORMOND BEACH   CLEAR     57  55  94 CALM      30.15R
DAYTONA BEACH  PTCLDY    58  58 100 CALM      30.15R
DELAND         CLEAR     55  54  94 CALM      30.14S
NEW SMYRNA BEA PTCLDY    57  57 100 CALM      30.15S
JFK SPACE CTR  CLEAR     56  56 100 CALM      30.12S
TITUSVILLE     PTCLDY    55  54  94 CALM      30.14R
CAPE CANAVERAL PTCLDY    61  54  78 SE5       30.12R
PATRICK AFB    CLEAR     67  64  90 CALM      30.13R
MELBOURNE      CLEAR     62  60  93 CALM      30.13R
VERO BEACH     CLEAR     60  58  92 E3        30.12R
FT PIERCE      CLEAR     67  63  87 E5        30.12R
STUART         PTCLDY    73  64  73 E12G17    30.12R

STATION/POSITION SKY/WX   TEMP    WIND        PRES    WAVE   SWELL
                          AIR SEA DIR/SP/G            HT/PER HT/PER
                          (F)     (DEG/KT/KT) (MB)    (FT/S) (FT/S)
TRIDENT PIER               68 70  100/  3/  4 1021.5R
28.4N   80.5W                 70                N/A     4/ 8
27.5N   80.2W                 71                N/A     5/ 6   2/11

$$
FLZ050-056-061-142-242-148-248-149-249-151-251-155-255-
160-260-261300-
WEST CENTRAL FLORIDA

CITY           SKY/WX    TMP DP  RH WIND       PRES   REMARKS
CRYSTAL RIVER  FAIR      59  57  94 E3        30.13S
INVERNESS      FAIR      55  55 100 CALM      30.15R
BROOKSVILLE    CLEAR     59  57  93 NE6       30.14S
CLEARWATER AIR FAIR      66  63  88 SE5       30.12R
ST PETE CLEARW CLOUDY    67  63  87 E5        30.12R
TAMPA INTL     CLOUDY    66  61  84 NE3       30.13S
TAMPA EXEC     CLEAR     59  55  88 CALM      30.14R
PLANT CITY     CLEAR     63  61  94 CALM      30.16R
MACDILL AFB    CLOUDY    64  64 100 E6        30.12R
PETER O KNIGHT CLOUDY    66  64  94 NE5       30.13R
ST PETERSBURG  CLOUDY    67  64  90 E8        30.11R
SARASOTA       CLEAR     63  61  93 E6        30.10R
VENICE           N/A     63  63 100 E7        30.12R

STATION/POSITION SKY/WX   TEMP    WIND        PRES    WAVE   SWELL
                          AIR SEA DIR/SP/G            HT/PER HT/PER
                          (F)     (DEG/KT/KT) (MB)    (FT/S) (FT/S)
27.3N   84.2W                 71                N/A     2/ 6
CLEARWATER BEACH NOT AVBL
MIDDLE TAMPA BAY           65     120/ 10/ 11 1020.0R
VENICE                     63 69   70/  6/  7 1019.4R

$$
FLZ066-069-070-075>078-162-262-165-265-261300-
SOUTHWEST FLORIDA AND KEYS

CITY           SKY/WX    TMP DP  RH WIND       PRES   REMARKS
PUNTA GORDA    CLOUDY    61  60  97 NE5       30.13R FOG
FT MYERS       CLEAR     66  64  93 NE5       30.10R
SOUTHWEST INTL CLEAR     64  62  93 E6        30.10R
NAPLES         CLEAR     66  65  96 E8        30.09R
IMMOKALEE      MOCLDY    64  64 100 NE5       30.10R
MARATHON       PTCLDY    75  66  73 E8        30.05R
KEY WEST NAS   PTCLDY    72  66  81 NE8       30.05R
KEY WEST INTL  LGT RAIN  73  68  84 E6        30.06R

STATION/POSITION SKY/WX   TEMP    WIND        PRES    WAVE   SWELL
                          AIR SEA DIR/SP/G            HT/PER HT/PER
                          (F)     (DEG/KT/KT) (MB)    (FT/S) (FT/S)
NAPLES                        72              1018.8R
26.0N   85.6W              76 77  110/ 14/ 16 1017.9R   5/ 8   3/ 8
DRY TORTUGAS               72      70/ 15/ 16 1017.8R
SAND KEY                   75     130/ 17/ 19 1017.8R
LONG KEY                   74 74  100/ 11/ 12 1017.9R
MOLASSES REEF              75 76  110/ 16/ 19 1018.4R

$$
FLZ067-068-071>074-168-172>174-261300-
SOUTHEAST FLORIDA

CITY           SKY/WX    TMP DP  RH WIND       PRES   REMARKS
W PALM BEACH   MOCLDY    72  61  68 E15       30.11R
BOCA RATON     CLOUDY    72  66  83 E15       30.09S
FT LAUDER-EXEC PTCLDY    70  65  84 W7        30.09R
FT LAUDERDALE  MOCLDY    72  65  78 E8        30.08R
POMPANO BEACH  CLOUDY    74  63  68 E12       30.09R
PEMBROKE PINES MOCLDY    69  65  86 NW7       30.10R
OPA LOCKA      PTCLDY   N/A N/A N/A N3        30.10R
MIAMI          PTCLDY    71  66  84 E8        30.09R
WEST KENDALL   CLEAR     67  65  93 CALM      30.08R
HOMESTEAD      MOCLDY    71  68  92 E6        30.07S

STATION/POSITION SKY/WX   TEMP    WIND        PRES    WAVE   SWELL
                          AIR SEA DIR/SP/G            HT/PER HT/PER
                          (F)     (DEG/KT/KT) (MB)    (FT/S) (FT/S)
PORT EVERGLADES            74      90/  9/ 13 1018.6R
VIRGINIA KEY               74      90/ 12/ 16 1018.9R
LAKE WORTH                        100/ 17/ 19   N/A
FOWEY ROCKS                74 75   90/ 20/ 22 1018.9S
SETTLEMENT POINT           70      90/ 14/ 15 1020.0R

$$





USA.gov is the U.S. government's official web portal to all federal, state and local government web resources and services.